EW9353 Weather Reports


time (UTC)temp
C
wind
direction
speed
KPH
gust
KPH
rain 1hr
cm
rain 24hr
cm
rain mn
cm
humidity
%
barometer
mb
20200930031735 8 235 0.0 1.6 0.00 0.00 0.00 88 1016.8
20200930030118 8 235 0.0 3.2 0.00 0.00 0.00 87 1016.7
20200930024645 8 235 0.0 3.2 0.00 0.00 0.00 87 1016.8
20200930023102 8 235 0.0 3.2 0.00 0.00 0.00 88 1017.0
20200930021621 9 235 0.0 0.0 0.00 0.00 0.00 87 1017.2
20200930020120 9 235 0.0 0.0 0.00 0.00 0.00 86 1017.2
20200930014657 9 235 0.0 0.0 0.00 0.00 0.00 87 1017.2
20200930013120 10 235 0.0 0.0 0.00 0.00 0.00 87 1017.2
20200930011616 10 235 0.0 0.0 0.00 0.00 0.00 86 1017.2
20200930010042 10 235 0.0 0.0 0.00 0.00 0.00 86 1017.1
20200930004537 10 235 0.0 0.0 0.00 0.00 0.00 85 1017.1
20200930003057 10 235 0.0 0.0 0.00 0.00 0.00 85 1017.1
20200930001608 10 235 0.0 0.0 0.00 0.00 0.00 83 1017.2
20200930000111 11 235 0.0 0.0 0.00 0.00 0.00 83 1017.3
20200929234545 11 235 0.0 0.0 0.00 0.00 0.00 82 1017.3
20200929233035 11 235 0.0 0.0 0.00 0.00 0.00 81 1017.4
20200929231558 11 235 0.0 0.0 0.00 0.00 0.00 83 1017.5
20200929230121 11 235 0.0 0.0 0.00 0.00 0.00 81 1017.5
20200929224542 11 235 0.0 0.0 0.00 0.00 0.00 82 1017.6
20200929223125 12 235 0.0 0.0 0.00 0.00 0.00 80 1017.5
20200929221524 12 235 0.0 3.2 0.00 0.00 0.00 80 1017.6
20200929220039 12 235 0.0 3.2 0.00 0.00 0.00 81 1017.5
20200929214558 12 235 0.0 3.2 0.00 0.00 0.00 79 1017.5
20200929213030 13 235 0.0 1.6 0.00 0.00 0.00 78 1017.6
20200929211527 13 235 0.0 1.6 0.00 0.00 0.00 79 1017.5
20200929210047 13 235 0.0 1.6 0.00 0.00 0.00 76 1017.4
20200929204520 14 235 0.0 4.8 0.00 0.00 0.00 76 1017.4
20200929203018 14 235 0.0 0.0 0.00 0.00 0.00 76 1017.2
20200929201555 15 235 0.0 1.6 0.00 0.00 0.00 74 1017.0
20200929200046 15 235 1.6 3.2 0.00 0.00 0.00 71 1016.8
20200929194529 15 235 0.0 3.2 0.00 0.00 0.00 71 1016.7
20200929193026 16 235 0.0 0.0 0.00 0.00 0.00 68 1016.7
20200929191523 17 235 0.0 3.2 0.00 0.00 0.00 68 1016.5
20200929190043 17 235 0.0 6.4 0.00 0.00 0.00 64 1016.3
20200929184532 19 238 1.6 3.2 0.00 0.00 0.00 58 1016.2
20200929183029 21 238 0.0 4.8 0.00 0.00 0.00 51 1016.1
20200929181517 22 238 3.2 6.4 0.00 0.00 0.00 46 1016.0
20200929180027 23 238 4.8 8.0 0.00 0.00 0.00 45 1015.9
20200929174526 24 239 6.4 11.3 0.00 0.00 0.00 41 1015.7
20200929173020 25 248 6.4 12.9 0.00 0.00 0.00 39 1015.4
20200929171525 26 252 8.0 12.9 0.00 0.00 0.00 34 1015.4
20200929170030 26 284 6.4 12.9 0.00 0.00 0.00 29 1015.3
20200929164521 26 259 6.4 12.9 0.00 0.00 0.00 29 1015.2
20200929163018 26 290 6.4 11.3 0.00 0.00 0.00 29 1015.2
20200929161526 27 329 4.8 12.9 0.00 0.00 0.00 28 1015.2
20200929160013 27 248 4.8 12.9 0.00 0.00 0.00 29 1015.2
20200929154512 27 283 3.2 16.1 0.00 0.00 0.00 28 1015.2
20200929153020 27 297 9.7 17.7 0.00 0.00 0.00 29 1015.2
20200929151519 27 292 4.8 17.7 0.00 0.00 0.00 31 1015.1
20200929150018 27 235 8.0 14.5 0.00 0.00 0.00 28 1015.2
20200929144510 27 283 4.8 11.3 0.00 0.00 0.00 28 1015.2
20200929143239 27 294 6.4 12.9 0.00 0.00 0.00 28 1015.3
20200929141712 27 254 9.7 16.1 0.00 0.00 0.00 29 1015.4
20200929134633 26 276 6.4 12.9 0.00 0.00 0.00 30 1015.6
20200929133058 26 199 4.8 12.9 0.00 0.00 0.00 28 1015.9
20200929131652 26 208 3.2 12.9 0.00 0.00 0.00 30 1016.1
20200929130040 26 141 4.8 11.3 0.00 0.00 0.00 29 1016.3
20200929124628 26 238 4.8 9.7 0.00 0.00 0.00 29 1016.4
20200929123123 26 22 3.2 8.0 0.00 0.00 0.00 29 1016.6
20200929121655 25 360 3.2 11.3 0.00 0.00 0.00 30 1016.8
20200929120039 25 234 3.2 8.0 0.00 0.00 0.00 30 1017.0
20200929114547 25 321 1.6 6.4 0.00 0.00 0.00 31 1017.0
20200929113028 24 321 0.0 6.4 0.00 0.00 0.00 33 1017.1
20200929111549 23 322 1.6 9.7 0.00 0.00 0.00 34 1017.2
20200929110026 23 351 1.6 8.0 0.00 0.00 0.00 39 1017.3
20200929104522 23 350 3.2 8.0 0.00 0.00 0.00 38 1017.4
20200929103022 22 66 1.6 4.8 0.00 0.00 0.00 39 1017.4
20200929101714 21 17 1.6 11.3 0.00 0.00 0.00 42 1017.5
20200929100141 21 14 3.2 11.3 0.00 0.00 0.00 45 1017.5
20200929094619 20 51 6.4 9.7 0.00 0.00 0.00 45 1017.5
20200929093150 20 65 3.2 11.3 0.00 0.00 0.00 49 1017.6
20200929091628 19 32 3.2 8.0 0.00 0.00 0.00 48 1017.6
20200929090058 18 32 4.8 11.3 0.00 0.00 0.00 50 1017.6
20200929084552 17 37 4.8 11.3 0.00 0.00 0.00 54 1017.5
20200929083031 17 44 3.2 8.0 0.00 0.00 0.00 55 1017.5
20200929081554 16 75 0.0 8.0 0.00 0.00 0.00 60 1017.5
20200929080127 15 87 1.6 8.0 0.00 0.00 0.00 64 1017.4
20200929074618 13 198 0.0 3.2 0.00 0.00 0.00 76 1017.4
20200929073110 11 198 0.0 0.0 0.00 0.00 0.00 86 1017.3
20200929071527 9 198 0.0 3.2 0.00 0.00 0.00 92 1017.3
20200929070115 8 198 0.0 3.2 0.00 0.00 0.00 88 1017.1
20200929064606 8 198 0.0 3.2 0.00 0.00 0.00 86 1017.0
20200929063025 8 198 0.0 3.2 0.00 0.00 0.00 86 1016.9
20200929061519 8 198 0.0 3.2 0.00 0.00 0.00 86 1016.7
20200929060034 9 198 0.0 3.2 0.00 0.00 0.00 87 1016.6
20200929054542 9 198 0.0 3.2 0.00 0.00 0.00 85 1016.6
20200929053020 10 198 0.0 3.2 0.00 0.00 0.00 85 1016.6
20200929051529 10 198 0.0 3.2 0.00 0.00 0.00 86 1016.5
20200929050024 10 198 0.0 3.2 0.00 0.00 0.00 88 1016.3
20200929044523 10 198 0.0 3.2 0.00 0.00 0.00 87 1016.3
20200929043033 10 198 0.0 1.6 0.00 0.00 0.00 84 1016.4
20200929041540 11 198 0.0 1.6 0.00 0.00 0.00 84 1016.2
20200929040020 10 198 0.0 1.6 0.00 0.00 0.00 87 1016.2
20200929034618 11 198 0.0 8.0 0.00 0.00 0.00 87 1016.2
20200929033117 11 198 0.0 8.0 0.00 0.00 0.00 86 1016.3